Wichita Falls, TX

5:37 AM CST on November 19, 2017 (GMT -0600)
Sheppard Air Force Base-Wichita Falls Municipal

Weather History for KSPS - November, 2013

Change the Weather History Date:

Thursday, November 28, 2013

  Actual Average Record
Temperature  
Mean Temperature 42 °F 47 °F  
Max Temperature 57 °F 60 °F 82 °F (1949)
Min Temperature 26 °F 35 °F 18 °F (1955)
Degree Days  
Heating Degree Days 23 18  
Month to date heating degree days 424 344  
Since 1 July heating degree days 526 470  
Cooling Degree Days 0 0  
Month to date cooling degree days 8 10  
Year to date cooling degree days 2628 2386  
Moisture  
Dew Point 24 °F    
Average Humidity 55    
Maximum Humidity 85    
Minimum Humidity 25    
Precipitation  
Precipitation 0.00 in 0.05 in 1.00 in (1909)
Month to date precipitation 0.64 1.55  
Year to date precipitation 20.04 27.20  
Snow  
Snow 0.00 in 0.10 in - ()
Month to date snowfall 0.2 0.3  
Since 1 July snowfall 0.2 0.3  
Snow Depth 0.00 in    
Sea Level Pressure  
Sea Level Pressure 30.34 in    
Wind  
Wind Speed 8 mph (South)    
Max Wind Speed 13 mph    
Max Gust Speed 15 mph    
Visibility 10 miles    
Events      
T = Trace of Precipitation, MM = Missing Value Source: NWS Daily Summary

Daily Weather History Graph

Daily Weather History Graph

Search for Another Location

Airport or City:

Trip Planner

Search our weather history database for the weather conditions in past years. The results will help you decide how hot, cold, wet, or windy it might be!

Date:

Astronomy

Nov. 28, 2013 Rise Set
Actual Time 7:18 AM CST 5:25 PM CST
Civil Twilight 6:51 AM CST 5:52 PM CST
Nautical Twilight 6:20 AM CST 6:23 PM CST
Astronomical Twilight 5:50 AM CST 6:53 PM CST
Moon 2:34 AM CST (11/28) 2:24 PM CST (11/28)
Length of Visible Light 11h 00m
Length of Day
10h 06m
Waning Crescent, 22% of the Moon is Illuminated
Nov 28
Waning Crescent
Dec 2
New
Dec 9
First Quarter
Dec 17
Full
Dec 25
Last Quarter

Hourly Weather History & Observations

Time (CST) Temp. Windchill Dew Point Humidity Pressure Visibility Wind Dir Wind Speed Gust Speed Precip Events Conditions
12:52 AM 30.0 °F 22.4 °F 23.0 °F 75% 30.31 in 10.0 mi South 8.1 mph - N/A   Clear
1:52 AM 34.0 °F 25.5 °F 23.0 °F 64% 30.29 in 10.0 mi SSW 11.5 mph - N/A   Clear
2:52 AM 33.1 °F 24.4 °F 21.9 °F 64% 30.30 in 10.0 mi SSW 11.5 mph - N/A   Clear
3:52 AM 30.9 °F 22.2 °F 21.9 °F 69% 30.30 in 10.0 mi SSW 10.4 mph - N/A   Clear
4:52 AM 27.0 °F 18.7 °F 21.0 °F 78% 30.31 in 10.0 mi SSW 8.1 mph - N/A   Clear
5:52 AM 28.0 °F 20.0 °F 21.9 °F 78% 30.32 in 10.0 mi SSW 8.1 mph - N/A   Clear
6:52 AM 28.0 °F 21.7 °F 21.9 °F 78% 30.34 in 10.0 mi SSW 5.8 mph - N/A   Clear
7:52 AM 28.9 °F 21.9 °F 24.1 °F 82% 30.36 in 10.0 mi SSW 6.9 mph - N/A   Clear
8:52 AM 37.9 °F 31.5 °F 25.0 °F 60% 30.37 in 10.0 mi SSW 9.2 mph - N/A   Clear
9:52 AM 42.1 °F 36.6 °F 24.1 °F 49% 30.38 in 10.0 mi SSW 9.2 mph - N/A   Clear
10:52 AM 46.9 °F - 24.1 °F 41% 30.37 in 10.0 mi South 5.8 mph - N/A   Clear
11:52 AM 48.0 °F - 25.0 °F 41% 30.35 in 10.0 mi SSW 6.9 mph - N/A   Clear
12:52 PM 52.0 °F - 25.0 °F 35% 30.33 in 10.0 mi SSW 5.8 mph - N/A   Clear
1:52 PM 55.9 °F - 25.0 °F 30% 30.30 in 10.0 mi South 9.2 mph - N/A   Clear
2:52 PM 55.9 °F - 23.0 °F 28% 30.29 in 10.0 mi South 3.5 mph - N/A   Clear
3:52 PM 57.0 °F - 23.0 °F 27% 30.30 in 10.0 mi South 9.2 mph - N/A   Clear
4:52 PM 54.0 °F - 26.1 °F 34% 30.32 in 10.0 mi SSE 8.1 mph - N/A   Clear
5:52 PM 48.0 °F - 26.1 °F 42% 30.34 in 10.0 mi SE 6.9 mph - N/A   Clear
6:52 PM 43.0 °F 38.2 °F 25.0 °F 49% 30.36 in 10.0 mi SE 8.1 mph - N/A   Clear
7:52 PM 39.9 °F 34.5 °F 26.1 °F 58% 30.38 in 10.0 mi SE 8.1 mph - N/A   Clear
8:52 PM 42.1 °F 35.7 °F 26.1 °F 53% 30.39 in 10.0 mi SE 11.5 mph - N/A   Clear
9:52 PM 39.9 °F 33.4 °F 26.1 °F 58% 30.40 in 10.0 mi SSE 10.4 mph - N/A   Clear
10:52 PM 37.0 °F 30.4 °F 26.1 °F 65% 30.41 in 10.0 mi SSE 9.2 mph - N/A   Clear
11:52 PM 37.9 °F 31.5 °F 27.0 °F 65% 30.40 in 10.0 mi SSE 9.2 mph - N/A   Clear